FW6182 Weather Reports


time (UTC)temp
F
wind
direction
speed
knots
gust
knots
rain 1hr
in
rain 24hr
in
rain mn
in
humidity
%
barometer
mb
20260510204507 65 198 6.1 10.4 0.00 0.00 0.00 41 700.5
20260510203451 66 175 6.1 10.4 0.00 0.00 0.00 42 693.4
20260510202435 66 213 7.0 10.4 0.00 0.00 0.00 45 786.3
20260510201418 66 194 5.2 10.4 0.00 0.00 0.00 45 758.0
20260510194258 66 205 5.2 12.2 0.00 0.00 0.00 42 736.1
20260510193241 66 153 5.2 12.2 0.00 0.00 0.00 42 617.3
20260510192740 66 98 6.1 12.2 0.00 0.00 0.00 44 631.0
20260510192239 66 193 5.2 12.2 0.00 0.00 0.00 45 725.9
20260510191738 66 207 7.8 12.2 0.00 0.00 0.00 42 790.6
20260510190721 66 248 7.0 13.0 0.00 0.00 0.00 42 811.4
20260510190220 66 217 5.2 13.0 0.00 0.00 0.00 42 805.9
20260510185719 66 231 7.0 13.0 0.00 0.00 0.00 43 850.1
20260510185219 66 254 8.7 15.6 0.00 0.00 0.00 41 864.2
20260510183646 66 246 6.1 13.0 0.00 0.00 0.00 43 839.4
20260510182628 66 234 9.6 13.0 0.00 0.00 0.00 41 781.4
20260510181611 66 195 7.0 13.0 0.00 0.00 0.00 45 718.3
20260510181110 66 195 7.0 13.9 0.00 0.00 0.00 41 710.1
20260510180609 66 199 8.7 16.5 0.00 0.00 0.00 40 691.3
20260510173447 66 215 7.8 15.6 0.00 0.00 0.00 42 770.9
20260510172946 65 225 9.6 15.6 0.00 0.00 0.00 40 766.4
20260510172446 66 223 8.7 16.5 0.00 0.00 0.00 39 737.0
20260510171946 66 187 10.4 16.5 0.00 0.00 0.00 40 702.6
20260510171445 66 176 8.7 12.2 0.00 0.00 0.00 39 658.1
20260510170430 65 186 7.0 12.2 0.00 0.00 0.00 42 640.3
20260510165933 64 172 7.8 13.0 0.00 0.00 0.00 43 600.8
20260510164910 64 141 6.1 13.9 0.00 0.00 0.00 43 600.1
20260510163338 65 132 7.8 13.9 0.00 0.00 0.00 41 574.0
20260510162321 65 57 7.0 17.4 0.00 0.00 0.00 39 608.5
20260510161820 64 205 9.6 17.4 0.00 0.00 0.00 39 745.9
20260510161319 65 196 7.0 15.6 0.00 0.00 0.00 41 751.2
20260510160302 64 181 9.6 16.5 0.00 0.00 0.00 40 705.9
20260510155802 65 169 7.8 13.9 0.00 0.00 0.00 40 723.3
20260510153712 63 180 8.7 13.0 0.00 0.00 0.00 44 662.0
20260510153211 63 166 7.8 13.0 0.00 0.00 0.00 45 659.0
20260510152711 62 145 6.1 11.3 0.00 0.00 0.00 47 635.9
20260510151653 61 175 7.8 11.3 0.00 0.00 0.00 46 695.5
20260510151153 61 184 7.0 11.3 0.00 0.00 0.00 46 697.3
20260510150651 61 183 7.0 11.3 0.00 0.00 0.00 46 695.0
20260510150150 61 202 6.1 11.3 0.00 0.00 0.00 47 677.2
20260510145650 61 168 6.1 11.3 0.00 0.00 0.00 49 652.9
20260510145149 60 165 7.0 11.3 0.00 0.00 0.00 47 654.9
20260510144648 60 163 4.3 11.3 0.00 0.00 0.00 49 680.3
20260510143633 60 178 4.3 12.2 0.00 0.00 0.00 47 692.3
20260510142102 60 169 6.1 12.2 0.00 0.00 0.00 48 656.3
20260510141044 60 148 5.2 12.2 0.00 0.00 0.00 51 638.7
20260510140544 60 146 5.2 12.2 0.00 0.00 0.00 51 660.3
20260510135528 60 149 7.0 12.2 0.00 0.00 0.00 48 664.5
20260510135027 60 191 6.1 12.2 0.00 0.00 0.00 50 726.1
20260510133455 60 179 6.1 13.9 0.00 0.00 0.00 49 695.9
20260510132438 60 178 7.0 13.9 0.00 0.00 0.00 50 661.8
20260510131938 60 162 7.0 13.9 0.00 0.00 0.00 50 663.4
20260510130922 60 162 7.0 13.9 0.00 0.00 0.00 51 663.1
20260510125905 60 172 7.8 13.0 0.00 0.00 0.00 52 668.4
20260510125405 59 165 7.0 13.0 0.00 0.00 0.00 51 657.7
20260510124904 59 159 7.0 13.9 0.00 0.00 0.00 51 635.1
20260510124403 59 151 7.0 13.9 0.00 0.00 0.00 52 612.7
20260510123346 59 141 7.0 12.2 0.00 0.00 0.00 53 585.6
20260510122845 59 152 6.1 13.9 0.00 0.00 0.00 54 576.0
20260510121828 59 129 7.0 12.2 0.00 0.00 0.00 54 558.6
20260510121327 59 131 8.7 12.2 0.00 0.00 0.00 55 573.7
20260510120826 58 135 7.0 12.2 0.00 0.00 0.00 55 598.3
20260510120325 58 168 5.2 12.2 0.00 0.00 0.00 55 630.8
20260510115824 58 163 7.0 12.2 0.00 0.00 0.00 54 632.1
20260510114807 58 163 7.0 9.6 0.00 0.00 0.00 55 642.3
20260510114307 58 147 5.2 9.6 0.00 0.00 0.00 56 643.7
20260510112735 58 152 6.1 9.6 0.00 0.00 0.00 56 619.1
20260510112234 58 155 6.1 9.6 0.00 0.00 0.00 58 605.8
20260510111217 59 131 6.1 9.6 0.00 0.00 0.00 58 602.0
20260510110200 59 159 5.2 9.6 0.00 0.00 0.00 59 603.4
20260510105658 59 139 4.3 9.6 0.00 0.00 0.00 60 587.0
20260510105157 60 133 5.2 9.6 0.00 0.00 0.00 60 565.0
20260510103111 60 141 5.2 9.6 0.00 0.00 0.00 65 556.7
20260510102610 60 129 4.3 9.6 0.00 0.00 0.00 65 587.0
20260510102109 60 130 4.3 9.6 0.00 0.00 0.00 65 599.5
20260510101609 60 150 4.3 9.6 0.00 0.00 0.00 66 619.3
20260510101108 60 152 3.5 9.6 0.00 0.00 0.00 66 615.1
20260510100607 60 147 4.3 9.6 0.00 0.00 0.00 66 605.2
20260510095552 60 140 4.3 9.6 0.00 0.00 0.00 67 578.3
20260510095050 60 144 4.3 9.6 0.00 0.00 0.00 67 577.6
20260510094549 60 138 3.5 9.6 0.00 0.00 0.00 67 565.7
20260510094049 60 135 3.5 9.6 0.00 0.00 0.00 67 562.1
20260510093548 60 145 4.3 9.6 0.00 0.00 0.00 67 547.8
20260510092533 61 107 4.3 9.6 0.00 0.00 0.00 67 531.2
20260510091516 61 141 5.2 9.6 0.00 0.00 0.00 66 550.3
20260510083839 63 142 3.5 9.6 0.00 0.00 0.00 63 619.6
20260510083338 63 141 2.6 9.6 0.00 0.00 0.00 63 603.8
20260510082837 63 166 4.3 9.6 0.00 0.00 0.00 63 598.1
20260510081305 63 165 5.2 9.6 0.00 0.00 0.00 64 571.8
20260510073628 64 121 2.6 9.6 0.00 0.00 0.00 65 547.9
20260510073127 64 129 2.6 9.6 0.00 0.00 0.00 65 554.4
20260510072110 64 110 1.7 9.6 0.00 0.00 0.00 64 553.6
20260510071609 64 136 3.5 9.6 0.00 0.00 0.00 64 572.2
20260510070553 65 130 3.5 9.6 0.00 0.00 0.00 65 524.9
20260510065536 65 47 3.5 9.6 0.00 0.00 0.00 66 446.6
20260510064519 65 114 2.6 9.6 0.00 0.00 0.00 67 531.4
20260510061914 62 111 0.0 13.0 0.00 0.00 0.00 79 577.3
20260510055825 62 147 0.9 13.0 0.00 0.00 0.00 80 521.6
20260510054809 62 106 0.0 13.0 0.00 0.00 0.00 79 489.2
20260510053752 64 141 2.6 13.0 0.00 0.00 0.00 78 511.9
20260510053251 64 101 0.9 13.0 0.00 0.00 0.00 76 479.5
20260510052750 63 126 0.0 13.0 0.00 0.00 0.00 76 522.3
20260510052249 63 137 0.9 13.0 0.00 0.00 0.00 78 490.6
20260510051747 63 102 0.0 13.0 0.00 0.00 0.00 79 447.7
20260510050213 63 82 0.0 13.0 0.00 0.00 0.00 77 434.9
20260510045156 63 125 0.0 13.0 0.00 0.00 0.00 77 488.6
20260510042553 64 127 0.0 13.0 0.00 0.00 0.00 76 497.6
20260510041536 64 123 0.0 13.0 0.00 0.00 0.00 75 475.2
20260510040003 65 85 0.0 13.0 0.00 0.00 0.00 73 466.1
20260510035502 65 117 0.0 13.0 0.00 0.00 0.00 73 503.7
20260510033413 67 134 0.0 13.0 0.00 0.00 0.00 68 525.0
20260510032912 67 123 0.0 13.0 0.00 0.00 0.00 68 506.6
20260510032411 67 110 0.0 13.0 0.00 0.00 0.00 65 508.5
20260510031910 68 130 0.0 13.0 0.00 0.00 0.00 64 539.9
20260510030854 70 140 0.9 13.0 0.00 0.00 0.00 61 548.5
20260510024249 70 149 3.5 13.0 0.00 0.00 0.00 60 559.7
20260510022717 71 112 0.9 13.0 0.00 0.00 0.00 60 478.2
20260510021700 73 83 0.9 13.0 0.00 0.00 0.00 57 484.6
20260510020643 72 90 0.9 13.0 0.00 0.00 0.00 59 545.3
20260510015110 69 2 4.3 13.0 0.00 0.00 0.00 72 1222.1
20260510014610 70 0 0.0 13.0 0.00 0.00 0.00 69 1235.1
20260510014110 71 0 0.0 13.0 0.00 0.00 0.00 69 1234.8
20260510013053 72 0 0.0 13.0 0.00 0.00 0.00 68 1234.1
20260510010450 76 0 0.0 13.0 0.00 0.00 0.00 67 1229.9
20260510005949 77 0 0.0 13.0 0.00 0.00 0.00 65 1229.3
20260510004932 79 0 0.0 13.0 0.00 0.00 0.00 61 1233.0
20260510003915 80 0 0.0 13.0 0.00 0.00 0.00 62 1232.8
20260510003413 81 357 0.0 13.0 0.00 0.00 0.00 61 1233.3
20260510002357 81 0 0.0 13.0 0.00 0.00 0.00 56 1240.4
20260510001340 81 359 0.0 13.0 0.00 0.00 0.00 48 1233.0
20260510000840 81 358 0.0 13.0 0.00 0.00 0.00 49 1228.1
20260510000341 81 359 0.0 13.0 0.00 0.00 0.00 47 1226.5
20260509235322 82 355 0.9 13.0 0.00 0.00 0.00 41 1216.3
20260509234821 82 358 1.7 13.0 0.00 0.00 0.00 41 1213.3
20260509234320 82 358 0.9 13.0 0.00 0.00 0.00 42 1225.9
20260509233820 82 356 1.7 13.0 0.00 0.00 0.00 44 1217.3
20260509232804 82 340 1.7 13.0 0.00 0.00 0.00 43 1208.0
20260509232305 82 354 1.7 13.0 0.00 0.00 0.00 41 1217.4
20260509230729 83 350 3.5 13.0 0.00 0.00 0.00 40 1213.7
20260509230228 83 355 3.5 13.0 0.00 0.00 0.00 38 1215.1
20260509225727 83 352 3.5 13.0 0.00 0.00 0.00 38 1219.3
20260509225227 83 359 4.3 13.0 0.00 0.00 0.00 38 1223.9
20260509223139 83 356 3.5 13.0 0.00 0.00 0.00 38 1225.6
20260509222639 83 0 2.6 13.0 0.00 0.00 0.00 38 1226.6
20260509220036 83 346 4.3 13.0 0.00 0.00 0.00 40 1211.9
20260509215021 84 358 4.3 13.0 0.00 0.00 0.00 39 1217.3
20260509214005 85 356 6.1 13.0 0.00 0.00 0.00 35 1218.9
20260509213504 84 355 6.1 13.0 0.00 0.00 0.00 36 1214.9
20260509211416 87 356 5.2 13.0 0.00 0.00 0.00 35 1225.1